Hourly Weather Barra Velha

Today, 19 April, Monday

Time Temperature Precipitation Wind Pressure Humidity
00:00 +18°C° 0.2 mm 3 mps 761 mmHg 99%
01:00 +18°C° 0.1 mm 3 mps 761 mmHg 99%
02:00 +18°C° 0.1 mm 3 mps 761 mmHg 99%
03:00 +18°C° 0.1 mm 2 mps 761 mmHg 99%
04:00 +17°C° 0 mm 2 mps 761 mmHg 99%
05:00 +17°C° 0 mm 2 mps 761 mmHg 99%
06:00 +17°C° 0 mm 2 mps 761 mmHg 99%
07:00 +18°C° 0 mm 2 mps 762 mmHg 95%
08:00 +20°C° 0 mm 2 mps 762 mmHg 91%
09:00 +21°C° 0 mm 2 mps 763 mmHg 87%
10:00 +24°C° 0.1 mm 2 mps 763 mmHg 78%
11:00 +25°C° 0.1 mm 3 mps 762 mmHg 68%
12:00 +27°C° 0.1 mm 3 mps 762 mmHg 59%
13:00 +27°C° 0.4 mm 3 mps 762 mmHg 67%
14:00 +26°C° 0.4 mm 3 mps 761 mmHg 74%
15:00 +25°C° 0.4 mm 4 mps 761 mmHg 81%
16:00 +23°C° 1 mm 4 mps 761 mmHg 86%
17:00 +21°C° 1 mm 4 mps 761 mmHg 91%
18:00 +20°C° 1 mm 4 mps 762 mmHg 96%
19:00 +20°C° 0.4 mm 4 mps 762 mmHg 96%
20:00 +19°C° 0.4 mm 4 mps 762 mmHg 97%
21:00 +19°C° 0.4 mm 4 mps 763 mmHg 97%
22:00 +19°C° 0.3 mm 3 mps 763 mmHg 98%
23:00 +18°C° 0.3 mm 3 mps 763 mmHg 98%

Tomorrow, 20 April, Tuesday

Time Temperature Precipitation Wind Pressure Humidity
00:00 +18°C° 0.3 mm 3 mps 763 mmHg 99%
01:00 +18°C° 0.1 mm 3 mps 762 mmHg 99%
02:00 +18°C° 0.1 mm 3 mps 762 mmHg 99%
03:00 +17°C° 0.1 mm 3 mps 762 mmHg 99%
04:00 +17°C° 0 mm 2 mps 762 mmHg 99%
05:00 +17°C° 0 mm 2 mps 762 mmHg 99%
06:00 +17°C° 0 mm 2 mps 762 mmHg 99%
07:00 +18°C° 0 mm 2 mps 762 mmHg 95%
08:00 +20°C° 0 mm 2 mps 763 mmHg 91%
09:00 +21°C° 0 mm 2 mps 763 mmHg 87%
10:00 +24°C° 0 mm 2 mps 763 mmHg 76%
11:00 +26°C° 0 mm 2 mps 763 mmHg 64%
12:00 +28°C° 0 mm 3 mps 763 mmHg 53%
13:00 +27°C° 0.3 mm 3 mps 762 mmHg 61%
14:00 +26°C° 0.3 mm 4 mps 762 mmHg 69%
15:00 +25°C° 0.3 mm 4 mps 762 mmHg 77%
16:00 +22°C° 0.9 mm 4 mps 762 mmHg 83%
17:00 +21°C° 0.9 mm 4 mps 762 mmHg 89%
18:00 +20°C° 0.9 mm 3 mps 762 mmHg 95%
19:00 +19°C° 0.9 mm 3 mps 763 mmHg 96%
20:00 +19°C° 0.9 mm 3 mps 763 mmHg 97%
21:00 +18°C° 0.9 mm 3 mps 763 mmHg 98%
22:00 +18°C° 0.5 mm 3 mps 763 mmHg 98%
23:00 +18°C° 0.5 mm 3 mps 763 mmHg 98%

Day after tomorrow, 21 April, Wednesday

Time Temperature Precipitation Wind Pressure Humidity
00:00 +17°C° 0.5 mm 3 mps 763 mmHg 99%
01:00 +18°C° 0.2 mm 3 mps 763 mmHg 99%
02:00 +18°C° 0.2 mm 3 mps 763 mmHg 99%
03:00 +18°C° 0.2 mm 3 mps 762 mmHg 99%
04:00 +18°C° 0.3 mm 3 mps 762 mmHg 98%
05:00 +18°C° 0.3 mm 3 mps 763 mmHg 98%
06:00 +18°C° 0.3 mm 2 mps 763 mmHg 98%
07:00 +19°C° 0.6 mm 2 mps 763 mmHg 95%
08:00 +20°C° 0.6 mm 2 mps 763 mmHg 92%
09:00 +21°C° 0.6 mm 2 mps 764 mmHg 89%
10:00 +21°C° 1.7 mm 3 mps 764 mmHg 90%
11:00 +22°C° 1.7 mm 3 mps 764 mmHg 90%
12:00 +22°C° 1.7 mm 3 mps 763 mmHg 91%
13:00 +22°C° 2.1 mm 3 mps 763 mmHg 92%
14:00 +22°C° 2.1 mm 3 mps 763 mmHg 93%
15:00 +22°C° 2.1 mm 3 mps 762 mmHg 94%
16:00 +21°C° 1.6 mm 3 mps 763 mmHg 95%
17:00 +20°C° 1.6 mm 3 mps 763 mmHg 96%
18:00 +19°C° 1.6 mm 3 mps 763 mmHg 98%
19:00 +19°C° 0.8 mm 3 mps 763 mmHg 98%
20:00 +19°C° 0.8 mm 3 mps 764 mmHg 98%
21:00 +19°C° 0.8 mm 2 mps 764 mmHg 98%
22:00 +19°C° 0.6 mm 2 mps 764 mmHg 98%
23:00 +19°C° 0.6 mm 2 mps 764 mmHg 99%

22 April, Thursday

Time Temperature Precipitation Wind Pressure Humidity
00:00 +19°C° 0.6 mm 2 mps 764 mmHg 99%
01:00 +19°C° 0.5 mm 2 mps 763 mmHg 99%
02:00 +18°C° 0.5 mm 2 mps 763 mmHg 99%
03:00 +18°C° 0.5 mm 3 mps 763 mmHg 99%
04:00 +18°C° 0.1 mm 3 mps 763 mmHg 99%
05:00 +18°C° 0.1 mm 3 mps 763 mmHg 98%
06:00 +17°C° 0.1 mm 2 mps 763 mmHg 98%
07:00 +18°C° 0 mm 2 mps 763 mmHg 95%
08:00 +19°C° 0 mm 2 mps 764 mmHg 92%
09:00 +20°C° 0 mm 2 mps 764 mmHg 89%
10:00 +23°C° 0 mm 2 mps 764 mmHg 77%
11:00 +25°C° 0 mm 2 mps 764 mmHg 65%
12:00 +27°C° 0 mm 2 mps 763 mmHg 53%
13:00 +27°C° 0 mm 3 mps 763 mmHg 55%
14:00 +27°C° 0 mm 3 mps 762 mmHg 57%
15:00 +26°C° 0 mm 3 mps 761 mmHg 60%
16:00 +25°C° 0 mm 3 mps 762 mmHg 69%
17:00 +22°C° 0 mm 3 mps 762 mmHg 79%
18:00 +20°C° 0 mm 3 mps 762 mmHg 88%
19:00 +20°C° 0.1 mm 3 mps 762 mmHg 91%
20:00 +19°C° 0.1 mm 3 mps 763 mmHg 94%
21:00 +18°C° 0.1 mm 2 mps 763 mmHg 97%
22:00 +18°C° 0.1 mm 2 mps 763 mmHg 98%
23:00 +18°C° 0.1 mm 2 mps 763 mmHg 98%

23 April, Friday

Time Temperature Precipitation Wind Pressure Humidity
00:00 +18°C° 0.1 mm 2 mps 763 mmHg 98%
01:00 +18°C° 0.1 mm 2 mps 763 mmHg 98%
02:00 +18°C° 0.1 mm 2 mps 762 mmHg 98%
03:00 +18°C° 0.1 mm 2 mps 762 mmHg 97%
04:00 +17°C° 0.1 mm 2 mps 762 mmHg 97%
05:00 +17°C° 0.1 mm 2 mps 762 mmHg 97%
06:00 +17°C° 0.1 mm 2 mps 762 mmHg 97%
07:00 +18°C° 0 mm 2 mps 763 mmHg 90%
08:00 +20°C° 0 mm 2 mps 763 mmHg 84%
09:00 +21°C° 0 mm 2 mps 763 mmHg 77%
10:00 +23°C° 0 mm 1 mps 763 mmHg 71%
11:00 +25°C° 0 mm 1 mps 762 mmHg 65%
12:00 +26°C° 0 mm 1 mps 762 mmHg 59%
13:00 +26°C° 0 mm 1 mps 761 mmHg 61%
14:00 +25°C° 0 mm 2 mps 760 mmHg 63%
15:00 +25°C° 0 mm 2 mps 760 mmHg 65%
16:00 +23°C° 0 mm 2 mps 760 mmHg 73%
17:00 +21°C° 0 mm 2 mps 760 mmHg 81%
18:00 +19°C° 0 mm 2 mps 760 mmHg 89%
19:00 +20°C° 0 mm 1 mps 760 mmHg 90%
20:00 +19°C° 0 mm 1 mps 760 mmHg 92%
21:00 +19°C° 0 mm 1 mps 760 mmHg 93%
22:00 +19°C° 0 mm 1 mps 760 mmHg 91%
23:00 +20°C° 0 mm 1 mps 760 mmHg 89%

24 April, Saturday

Time Temperature Precipitation Wind Pressure Humidity
00:00 +18°C° 0 mm 0 mps 760 mmHg 87%
01:00 +20°C° 0 mm 1 mps 759 mmHg 87%
02:00 +20°C° 0 mm 1 mps 759 mmHg 87%
03:00 +20°C° 0 mm 1 mps 758 mmHg 88%
04:00 +19°C° 0 mm 1 mps 758 mmHg 91%
05:00 +18°C° 0 mm 1 mps 758 mmHg 95%
06:00 +18°C° 0 mm 1 mps 758 mmHg 98%
07:00 +19°C° 0 mm 1 mps 758 mmHg 90%
08:00 +21°C° 0 mm 1 mps 759 mmHg 82%
09:00 +23°C° 0 mm 1 mps 759 mmHg 74%
10:00 +24°C° 0 mm 1 mps 758 mmHg 68%
11:00 +25°C° 0 mm 1 mps 758 mmHg 63%
12:00 +27°C° 0 mm 1 mps 758 mmHg 57%
13:00 +26°C° 0 mm 1 mps 757 mmHg 62%
14:00 +25°C° 0 mm 1 mps 757 mmHg 66%
15:00 +25°C° 0 mm 1 mps 757 mmHg 71%
16:00 +24°C° 0 mm 1 mps 757 mmHg 75%
17:00 +23°C° 0 mm 1 mps 756 mmHg 78%
18:00 +21°C° 0 mm 2 mps 756 mmHg 82%
19:00 +22°C° 0.1 mm 1 mps 756 mmHg 85%
20:00 +21°C° 0.1 mm 1 mps 757 mmHg 89%
21:00 +21°C° 0.1 mm 1 mps 757 mmHg 92%
22:00 +21°C° 0.1 mm 1 mps 757 mmHg 93%
23:00 +20°C° 0.1 mm 2 mps 756 mmHg 94%
Show more